Tracking 29892 objects as of 21-Nov-2024
HD Live streaming from Space Station
objects crossing your sky now

FENGYUN 1C DEB

Track FENGYUN 1C DEB now!
10-day predictions


NORAD ID: 30468
Int'l Code: 1999-025AGF
Perigee: 787.9 km
Apogee: 898.1 km
Inclination: 98.9 °
Period: 101.6 minutes
Semi major axis: 7213 km
RCS: 0.042 m2 (small)
Launch date: May 10, 1999
Source: People's Republic of China (PRC)
Launch site: Taiyaun Space Center, China (TSC)

Note: This is SATELLITE DEBRIS
Your satellite tracking list
Your tracking list is empty




NASA's NSSDC Master Catalog

Two Line Element Set (TLE):
1 30468U 99025AGF 24324.21271038  .00004408  00000-0  21558-2 0  9994
2 30468  98.9429  36.7853 0076384  70.5874 311.2629 14.16908120913004
Source of the keplerian elements: AFSPC